CZ-4C DEB, 43261

Orbit data source: Space-Track

CZ-4C DEB, 43261 is space debris in SSO originally from a launch on Sat, 31 Mar 2018 UTC launched from the Taiyaun Space Center, China (TSC). Debris objects in space refer to the collection of defunct objects orbiting the Earth. Examples of debris include non-operational satellites, rocket bodies, and fragments generated from explosions, collisions, or faulty payload assembly.

Loading next visibility...
Identifier
43261, 2018-031C
Orbit
SSO
Country
Flag of CNCN / PRC
Related business
Manufacturer
Unknown
Mission
Spacecraft
Bus & Motor
Unknown
Mass
Unknown
Launch date (UTC)
2018-03-31 (8 years ago)
Launch vehicle
Unknown
Launch site
Taiyaun Space Center, China (TSC)
Object type
Payload
Rocket body
Debris
Shape & HBR
Unknown shape, 3.0 m
Radar Cross Section
Large (>1 m²)

Expand to show TLE details & history
Last TLE update: 7 hours ago

TLE from 7 hours ago
0 CZ-4C DEB
1 43261U 18031C   26126.55750497  .00005921  00000-0  46921-3 0  9990
2 43261  97.7764 210.7622 0008441  65.5530 294.6573 15.00917081438169
Epoch: 2026-05-06T13:22Z
TLE epoch observation values (Epoch: 2026-05-06T13:22:48.429Z)
Latitude
-0.00006°
Longitude
145.64414°
Altitude
564.68 km
Speed
7.58 km/s
True Right ascension
14h 03m 02s
True Declination
0° 00' 00"
Sunlit
Object was in full shadow at epoch
Visualization orbit readout
Latitude
Unknown
Longitude
Unknown
Altitude
Unknown
Speed
Unknown
Apparent Right ascension
Unknown
Apparent Declination
Unknown
Sunlit
N/A
Visualization observer readout
Local Sidereal Time
04:08:49
Azimuth
Unknown
Elevation
Unknown
Doppler factor
Unknown
Orbital elements
Apogee altitude
566.932 km
Perigee altitude
555.217 km
Semi-major axis
6,939.211 km
Eccentricity
0.00084
Inclination
97.7764°
RAAN
210.7622°
Arg. of periapsis
65.553°
True anomaly
294.56935°
Mean anomaly
294.6573°
Eccentric anomaly
294.61333°
Mean motion
3.75472 °/min
Orbital period
95.88 mins
BSTAR
0.00046921
Loading maneuver chart data...
Computing Atmospheric mass density...
Loading historical data...
Loading historical data...
Loading historical data...
Loading historical data...
Loading historical data...
Loading historical data...
Loading historical data...

Documentation

Showing up to 5 results
|